Regional Weather Roundup
Issued by NWS

Home | Current Version | Previous Version | Graphics & Text | Print | Product List | Glossary On
Versions: 1 2 3 4 5 6 7 8 9 10 11 12 13 14 15 16 17 18 19 20 21 22 23 24 25 26 27 28 29 30 31 32 33 34 35 36 37 38 39 40 41 42 43 44 45 46 47 48 49 50
000
ASUS45 KBOI 010710
RWRID

IDAHO REGIONAL WEATHER ROUNDUP
NATIONAL WEATHER SERVICE BOISE ID
100 AM MDT TUE SEP 01 2015

NOTE: "FAIR" INDICATES FEW OR NO CLOUDS BELOW 12000 FEET
WITH NO SIGNIFICANT WEATHER AND/OR OBSTRUCTIONS TO VISIBILITY

IDZ012-014-010800-
SOUTHWEST IDAHO


CITY           SKY/WX    TMP DP  RH WIND       PRES   REMARKS
BOISE          CLEAR     65  39  38 SE3       29.90S
CALDWELL       CLEAR     57  41  54 NE3       29.90S
MOUNTAIN HOME  CLEAR     64  38  38 NW5       29.91S
$$

IDZ016-017-010800-
SOUTHCENTRAL IDAHO


CITY           SKY/WX    TMP DP  RH WIND       PRES   REMARKS
BURLEY         CLEAR     50  41  71 CALM      29.97S
JEROME         CLEAR     58  33  39 E5        29.97F
TWIN FALLS     CLEAR     62  29  28 S10       29.97S
$$

IDZ019>023-010800-
SOUTHEAST IDAHO


CITY           SKY/WX    TMP DP  RH WIND       PRES   REMARKS
IDAHO FALLS    PTCLDY    55  36  48 S7        30.01S
POCATELLO      CLEAR     54  34  46 E6        30.01S
REXBURG        CLEAR     51  35  54 N7        30.01S
$$

IDZ006-010-011-018-031-032-010800-
CENTRAL IDAHO MOUNTAINS


CITY           SKY/WX    TMP DP  RH WIND       PRES   REMARKS
MCCALL         CLEAR     47  37  68 NE3       30.01F
HAILEY         CLEAR     52  36  54 NW10      30.07F
STANLEY          N/A     46  29  51 S3        30.13R
SALMON         PTCLDY    52  39  62 CALM      29.94R
CHALLIS        CLEAR     58  33  39 S3        30.02R
$$

IDZ002-004-006-007-026-010800-
NORTHERN IDAHO


CITY           SKY/WX    TMP DP  RH WIND       PRES   REMARKS
LEWISTON       PTCLDY    64  43  46 CALM      29.88S
LOWELL           N/A     55  52  89 CALM      29.94S
COEUR D`ALENE  PTCLDY    61  46  59 S9        29.87S
MULLAN PASS    PTCLDY    48  37  65 VRB7      30.00F
$$


USA.gov is the U.S. government's official web portal to all federal, state and local government web resources and services.